Time,TemperatureF,DewpointF,PressureIn,WindDirection,WindDirectionDegrees,WindSpeedMPH,WindSpeedGustMPH,Humidity,HourlyPrecipIn,Conditions,Clouds,dailyrainin,SoftwareType,DateUTC
2013-07-01 00:01:00,71.6,65.8,29.76,WSW,256,0.0,0.0,82,0.00,,SCT070,0.00,VWS V14.01,2013-07-01 04:01:00,
2013-07-01 00:06:00,71.4,65.6,29.76,WSW,256,0.0,0.0,82,0.00,,SCT070,0.00,VWS V14.01,2013-07-01 04:06:00,
2013-07-01 00:11:00,71.2,65.4,29.76,ENE,74,0.0,1.0,82,0.00,,SCT070,0.00,VWS V14.01,2013-07-01 04:11:00,
2013-07-01 00:16:00,71.2,65.8,29.76,ENE,73,0.0,1.0,83,0.00,,SCT070,0.00,VWS V14.01,2013-07-01 04:16:00,
2013-07-01 00:21:00,71.1,65.7,29.76,ENE,73,0.0,0.0,83,0.00,,SCT070,0.00,VWS V14.01,2013-07-01 04:21:00,
2013-07-01 00:26:00,70.9,65.8,29.76,ENE,73,0.0,0.0,84,0.00,,SCT070,0.00,VWS V14.01,2013-07-01 04:26:00,
2013-07-01 00:31:00,70.7,65.6,29.75,ENE,73,0.0,0.0,84,0.00,,SCT070,0.00,VWS V14.01,2013-07-01 04:31:00,
2013-07-01 00:36:00,70.5,65.8,29.75,ENE,74,0.0,0.0,85,0.00,,SCT070,0.00,VWS V14.01,2013-07-01 04:36:00,
2013-07-01 00:41:00,70.3,65.6,29.75,ENE,73,0.0,0.0,85,0.00,,SCT070,0.00,VWS V14.01,2013-07-01 04:41:00,
2013-07-01 09:39:00,76.1,70.6,29.82,NNE,23,0.0,0.0,83,0.00,,SCT070,0.00,VWS V14.01,2013-07-01 13:39:00,
2013-07-01 09:44:00,76.3,70.8,29.82,NNE,23,0.0,0.0,83,0.00,,OVC010,0.00,VWS V14.01,2013-07-01 13:44:00,
2013-07-01 09:49:00,76.4,70.9,29.82,ENE,77,1.0,1.0,83,0.00,,OVC010,0.00,VWS V14.01,2013-07-01 13:49:00,
2013-07-01 09:54:00,76.0,70.5,29.83,SW,214,0.0,0.0,83,0.00,,OVC010,0.00,VWS V14.01,2013-07-01 13:54:00,
2013-07-01 09:59:00,76.0,70.5,29.83,East,84,0.0,0.0,83,0.00,,OVC010,0.00,VWS V14.01,2013-07-01 13:59:00,
2013-07-01 10:04:00,76.3,70.4,29.83,East,83,1.0,1.0,82,0.00,,BKN012,0.00,VWS V14.01,2013-07-01 14:04:00,
2013-07-01 10:09:00,76.6,70.7,29.83,South,186,1.0,2.0,82,0.00,,BKN012,0.00,VWS V14.01,2013-07-01 14:09:00,
2013-07-01 10:14:00,76.2,70.7,29.83,East,91,0.0,2.0,83,0.00,,BKN012,0.00,VWS V14.01,2013-07-01 14:14:00,
2013-07-01 10:19:00,76.3,70.8,29.83,East,86,0.0,2.0,83,0.00,,BKN012,0.00,VWS V14.01,2013-07-01 14:19:00,
2013-07-01 10:24:00,76.5,71.3,29.83,East,96,0.0,0.0,84,0.00,,BKN012,0.00,VWS V14.01,2013-07-01 14:24:00,
2013-07-01 10:29:00,77.1,70.8,29.83,NE,37,4.0,4.0,81,0.00,,BKN012,0.00,VWS V14.01,2013-07-01 14:29:00,
2013-07-01 10:34:00,77.1,70.8,29.83,WSW,242,0.0,1.0,81,0.00,,BKN012,0.00,VWS V14.01,2013-07-01 14:34:00,
2013-07-01 10:39:00,77.5,70.8,29.83,SE,124,0.0,1.0,80,0.00,,BKN012,0.00,VWS V14.01,2013-07-01 14:39:00,
2013-07-01 10:44:00,77.5,70.8,29.83,East,82,0.0,2.0,80,0.00,,BKN012,0.00,VWS V14.01,2013-07-01 14:44:00,
2013-07-01 10:49:00,78.0,71.3,29.83,SSW,208,0.0,0.0,80,0.00,,BKN012,0.00,VWS V14.01,2013-07-01 14:49:00,
2013-07-01 10:54:00,78.6,70.8,29.83,East,84,0.0,4.0,77,0.00,,BKN012,0.00,VWS V14.01,2013-07-01 14:54:00,
2013-07-01 10:59:00,78.8,71.4,29.83,ENE,58,3.0,5.0,78,0.00,,BKN012,0.00,VWS V14.01,2013-07-01 14:59:00,
2013-07-01 11:04:00,78.9,71.5,29.83,NE,49,0.0,1.0,78,0.00,,BKN018,0.00,VWS V14.01,2013-07-01 15:04:00,
2013-07-01 11:09:00,79.3,71.1,29.83,SSW,194,0.0,3.0,76,0.00,,BKN018,0.00,VWS V14.01,2013-07-01 15:09:00,
2013-07-01 11:14:00,79.4,70.8,29.83,East,87,1.0,5.0,75,0.00,,BKN018,0.00,VWS V14.01,2013-07-01 15:14:00,
2013-07-01 11:19:00,79.3,71.1,29.83,ESE,102,0.0,3.0,76,0.00,,BKN018,0.00,VWS V14.01,2013-07-01 15:19:00,
2013-07-01 11:24:00,80.0,71.4,29.83,SW,235,0.0,2.0,75,0.00,,BKN018,0.00,VWS V14.01,2013-07-01 15:24:00,
2013-07-01 11:29:00,80.0,70.6,29.83,East,82,2.0,4.0,73,0.00,,BKN018,0.00,VWS V14.01,2013-07-01 15:29:00,
2013-07-01 11:34:00,79.2,71.4,29.83,SW,221,0.0,1.0,77,0.00,,BKN018,0.00,VWS V14.01,2013-07-01 15:34:00,
2013-07-01 11:39:00,79.2,71.4,29.83,SW,221,0.0,0.0,77,0.00,,BKN018,0.00,VWS V14.01,2013-07-01 15:39:00,
2013-07-01 11:44:00,79.7,71.1,29.83,WSW,250,1.0,1.0,75,0.00,,BKN018,0.00,VWS V14.01,2013-07-01 15:44:00,
2013-07-01 11:49:00,81.0,71.9,29.82,East,79,3.0,3.0,74,0.00,,BKN018,0.00,VWS V14.01,2013-07-01 15:49:00,
2013-07-01 11:54:00,81.3,71.0,29.82,East,82,5.0,5.0,71,0.00,,BKN018,0.00,VWS V14.01,2013-07-01 15:54:00,
2013-07-01 11:59:00,81.4,71.1,29.82,ESE,104,3.0,3.0,71,0.00,,BKN018,0.00,VWS V14.01,2013-07-01 15:59:00,
2013-07-01 12:04:00,81.4,70.7,29.83,WSW,238,0.0,4.0,70,0.00,,BKN029,0.00,VWS V14.01,2013-07-01 16:04:00,
2013-07-01 12:09:00,81.6,71.3,29.83,SSW,201,0.0,1.0,71,0.00,,BKN029,0.00,VWS V14.01,2013-07-01 16:09:00,
2013-07-01 12:14:00,81.4,71.1,29.83,ESE,119,0.0,1.0,71,0.00,,BKN029,0.00,VWS V14.01,2013-07-01 16:14:00,
2013-07-01 12:19:00,81.1,72.0,29.83,SSE,159,0.0,5.0,74,0.00,,BKN029,0.00,VWS V14.01,2013-07-01 16:19:00,
2013-07-01 12:24:00,81.1,71.6,29.82,SW,221,0.0,3.0,73,0.00,,BKN029,0.00,VWS V14.01,2013-07-01 16:24:00,
2013-07-01 12:29:00,80.5,70.7,29.82,ESE,108,0.0,6.0,72,0.00,,BKN029,0.00,VWS V14.01,2013-07-01 16:29:00,
2013-07-01 12:34:00,80.1,70.7,29.81,East,94,1.0,6.0,73,0.00,,BKN029,0.00,VWS V14.01,2013-07-01 16:34:00,
2013-07-01 12:39:00,80.7,71.2,29.81,South,189,0.0,4.0,73,0.00,,BKN029,0.00,VWS V14.01,2013-07-01 16:39:00,
2013-07-01 12:44:00,81.3,71.4,29.81,East,92,0.0,1.0,72,0.00,,BKN029,0.00,VWS V14.01,2013-07-01 16:44:00,
2013-07-01 12:49:00,81.7,69.7,29.81,NNE,28,1.0,2.0,67,0.00,,BKN029,0.00,VWS V14.01,2013-07-01 16:49:00,
2013-07-01 12:54:00,81.7,71.4,29.82,ESE,117,0.0,4.0,71,0.00,,BKN029,0.00,VWS V14.01,2013-07-01 16:54:00,
2013-07-01 12:59:00,81.4,71.1,29.82,East,98,0.0,4.0,71,0.00,,BKN029,0.00,VWS V14.01,2013-07-01 16:59:00,
2013-07-01 13:04:00,80.7,70.8,29.82,SE,124,2.0,2.0,72,0.00,,BKN036,0.00,VWS V14.01,2013-07-01 17:04:00,
2013-07-01 13:09:00,80.2,70.8,29.81,NNE,15,4.0,6.0,73,0.00,,BKN036,0.00,VWS V14.01,2013-07-01 17:09:00,
2013-07-01 13:14:00,80.1,71.1,29.81,SE,145,0.0,4.0,74,0.00,,BKN036,0.00,VWS V14.01,2013-07-01 17:14:00,
2013-07-01 13:19:00,80.4,71.4,29.81,East,84,0.0,2.0,74,0.00,,BKN036,0.00,VWS V14.01,2013-07-01 17:19:00,
2013-07-01 13:24:00,80.3,69.2,29.81,SW,229,2.0,4.0,69,0.00,,BKN036,0.00,VWS V14.01,2013-07-01 17:24:00,
2013-07-01 13:29:00,80.0,69.3,29.81,South,176,1.0,1.0,70,0.00,,BKN036,0.00,VWS V14.01,2013-07-01 17:29:00,
2013-07-01 13:34:00,79.7,69.1,29.80,ENE,77,1.0,3.0,70,0.00,,BKN036,0.00,VWS V14.01,2013-07-01 17:34:00,
2013-07-01 13:39:00,79.0,70.0,29.80,ENE,67,3.0,3.0,74,0.00,,BKN036,0.00,VWS V14.01,2013-07-01 17:39:00,
2013-07-01 13:44:00,78.3,70.5,29.80,East,92,0.0,1.0,77,0.00,,OVC025,0.00,VWS V14.01,2013-07-01 17:44:00,
2013-07-01 13:49:00,77.9,72.0,29.80,East,92,0.0,1.0,82,0.01,,OVC025,0.01,VWS V14.01,2013-07-01 17:49:00,
2013-07-01 13:54:00,76.9,72.1,29.80,North,358,0.0,0.0,85,0.03,,OVC025,0.03,VWS V14.01,2013-07-01 17:54:00,
2013-07-01 13:59:00,76.0,71.5,29.80,North,1,0.0,1.0,86,0.07,,OVC025,0.07,VWS V14.01,2013-07-01 17:59:00,
2013-07-01 14:04:00,75.6,71.8,29.81,SW,226,2.0,2.0,88,0.14,,OVC032,0.14,VWS V14.01,2013-07-01 18:04:00,
2013-07-01 14:10:00,74.5,70.4,29.80,NE,43,0.0,2.0,87,0.23,,OVC032,0.23,VWS V14.01,2013-07-01 18:10:00,
2013-07-01 14:15:00,73.7,70.9,29.80,North,349,0.0,1.0,91,0.26,,OVC032,0.26,VWS V14.01,2013-07-01 18:15:00,
2013-07-01 14:20:00,73.3,70.8,29.81,West,279,1.0,1.0,92,0.28,,OVC032,0.28,VWS V14.01,2013-07-01 18:20:00,
2013-07-01 14:25:00,72.3,69.5,29.81,NW,307,1.0,2.0,91,0.41,,OVC032,0.41,VWS V14.01,2013-07-01 18:25:00,
2013-07-01 14:30:00,70.9,68.2,29.81,NW,315,2.0,2.0,91,0.56,,OVC032,0.56,VWS V14.01,2013-07-01 18:30:00,
2013-07-01 14:35:00,70.0,67.6,29.81,NE,39,0.0,3.0,92,0.69,,OVC032,0.69,VWS V14.01,2013-07-01 18:35:00,
2013-07-01 14:40:00,69.6,67.8,29.82,North,8,1.0,1.0,94,0.85,,OVC032,0.85,VWS V14.01,2013-07-01 18:40:00,
2013-07-01 14:45:00,70.1,68.9,29.81,NNW,340,0.0,1.0,96,0.87,,OVC032,0.87,VWS V14.01,2013-07-01 18:45:00,
2013-07-01 14:50:00,70.2,68.7,29.81,East,101,0.0,2.0,95,0.87,,OVC032,0.87,VWS V14.01,2013-07-01 18:50:00,
2013-07-01 14:55:00,70.5,69.3,29.81,ESE,102,1.0,1.0,96,0.85,,OVC032,0.87,VWS V14.01,2013-07-01 18:55:00,
2013-07-01 15:00:00,70.3,68.8,29.81,East,84,0.0,1.0,95,0.85,,OVC032,0.88,VWS V14.01,2013-07-01 19:00:00,
2013-07-01 15:05:00,70.3,68.8,29.82,East,84,0.0,0.0,95,0.79,,OVC060,0.88,VWS V14.01,2013-07-01 19:05:00,
2013-07-01 15:10:00,70.3,69.1,29.82,East,84,0.0,0.0,96,0.66,,OVC060,0.88,VWS V14.01,2013-07-01 19:10:00,
2013-07-01 15:15:00,70.5,69.3,29.82,East,84,0.0,0.0,96,0.64,,OVC060,0.88,VWS V14.01,2013-07-01 19:15:00,
2013-07-01 15:20:00,70.6,69.1,29.82,East,84,0.0,1.0,95,0.62,,OVC060,0.88,VWS V14.01,2013-07-01 19:20:00,
2013-07-01 15:25:00,70.6,69.1,29.82,East,94,0.0,1.0,95,0.58,,OVC060,0.88,VWS V14.01,2013-07-01 19:25:00,
2013-07-01 15:30:00,70.5,69.0,29.82,East,101,0.0,3.0,95,0.41,,OVC060,0.88,VWS V14.01,2013-07-01 19:30:00,
2013-07-01 15:35:00,70.9,69.7,29.82,ENE,72,0.0,2.0,96,0.29,,OVC060,0.88,VWS V14.01,2013-07-01 19:35:00,
2013-07-01 15:40:00,72.0,71.1,29.82,NE,52,1.0,2.0,97,0.16,,OVC060,0.88,VWS V14.01,2013-07-01 19:40:00,
2013-07-01 15:45:00,72.5,71.0,29.82,NE,44,0.0,2.0,95,0.01,,OVC060,0.88,VWS V14.01,2013-07-01 19:45:00,
2013-07-01 15:50:00,73.0,70.9,29.82,NE,41,1.0,1.0,93,0.01,,OVC060,0.88,VWS V14.01,2013-07-01 19:50:00,
2013-07-01 15:55:00,73.6,71.8,29.82,NE,40,0.0,0.0,94,0.01,,OVC060,0.88,VWS V14.01,2013-07-01 19:55:00,
2013-07-01 16:00:00,74.1,71.6,29.82,NE,39,0.0,0.0,92,0.01,,OVC060,0.88,VWS V14.01,2013-07-01 20:00:00,
2013-07-01 16:05:00,74.4,70.9,29.82,NNE,13,0.0,1.0,89,0.00,,BKN150,0.88,VWS V14.01,2013-07-01 20:05:00,
2013-07-01 16:10:00,75.0,71.2,29.82,NNE,13,0.0,0.0,88,0.00,,BKN150,0.88,VWS V14.01,2013-07-01 20:10:00,
2013-07-01 16:15:00,75.8,71.3,29.82,NNE,13,0.0,0.0,86,0.00,,BKN150,0.88,VWS V14.01,2013-07-01 20:15:00,
2013-07-01 16:20:00,75.8,70.6,29.82,NNE,13,0.0,0.0,84,0.00,,BKN150,0.88,VWS V14.01,2013-07-01 20:20:00,
2013-07-01 16:25:00,75.9,70.7,29.82,NNE,13,0.0,0.0,84,0.00,,BKN150,0.88,VWS V14.01,2013-07-01 20:25:00,
2013-07-01 16:30:00,76.2,71.4,29.83,NNE,13,0.0,1.0,85,0.00,,BKN150,0.88,VWS V14.01,2013-07-01 20:30:00,
2013-07-01 16:35:00,75.9,70.7,29.83,NNE,13,0.0,0.0,84,0.00,,BKN150,0.88,VWS V14.01,2013-07-01 20:35:00,
2013-07-01 16:40:00,75.7,71.6,29.83,NNE,13,0.0,0.0,87,0.00,,BKN150,0.88,VWS V14.01,2013-07-01 20:40:00,
2013-07-01 16:45:00,75.1,71.3,29.83,NE,50,0.0,1.0,88,0.00,,BKN150,0.88,VWS V14.01,2013-07-01 20:45:00,
2013-07-01 16:50:00,74.8,71.3,29.83,East,82,0.0,0.0,89,0.00,,BKN150,0.88,VWS V14.01,2013-07-01 20:50:00,
2013-07-01 16:55:00,74.6,71.5,29.83,NE,56,1.0,3.0,90,0.00,,BKN150,0.88,VWS V14.01,2013-07-01 20:55:00,
2013-07-01 17:00:00,74.2,71.4,29.83,ENE,73,1.0,2.0,91,0.00,,BKN150,0.88,VWS V14.01,2013-07-01 21:00:00,
2013-07-01 17:05:00,74.0,70.9,29.83,NNE,27,0.0,4.0,90,0.00,,BKN150,0.88,VWS V14.01,2013-07-01 21:05:00,
2013-07-01 17:10:00,73.7,70.3,29.83,East,94,1.0,2.0,89,0.00,,BKN150,0.88,VWS V14.01,2013-07-01 21:10:00,
2013-07-01 17:15:00,73.6,70.2,29.83,East,90,0.0,1.0,89,0.00,,BKN150,0.88,VWS V14.01,2013-07-01 21:15:00,
2013-07-01 17:20:00,73.9,71.1,29.83,East,90,0.0,1.0,91,0.00,,BKN150,0.88,VWS V14.01,2013-07-01 21:20:00,
2013-07-01 17:25:00,74.2,71.1,29.83,East,100,0.0,1.0,90,0.00,,BKN150,0.88,VWS V14.01,2013-07-01 21:25:00,
2013-07-01 17:30:00,74.2,70.8,29.83,East,99,0.0,2.0,89,0.00,,BKN150,0.88,VWS V14.01,2013-07-01 21:30:00,
2013-07-01 17:35:00,74.3,70.2,29.82,East,96,0.0,1.0,87,0.00,,BKN150,0.88,VWS V14.01,2013-07-01 21:35:00,
2013-07-01 17:40:00,74.6,70.8,29.82,East,96,0.0,1.0,88,0.00,,BKN150,0.88,VWS V14.01,2013-07-01 21:40:00,
2013-07-01 17:45:00,74.9,71.4,29.83,East,96,0.0,0.0,89,0.00,,BKN150,0.88,VWS V14.01,2013-07-01 21:45:00,
2013-07-01 17:50:00,75.1,71.6,29.83,NE,43,0.0,2.0,89,0.00,,BKN150,0.88,VWS V14.01,2013-07-01 21:50:00,
2013-07-01 17:55:00,75.2,71.1,29.83,East,85,0.0,1.0,87,0.00,,BKN150,0.88,VWS V14.01,2013-07-01 21:55:00,
2013-07-01 18:00:00,75.3,71.5,29.83,ESE,108,0.0,1.0,88,0.00,,BKN150,0.88,VWS V14.01,2013-07-01 22:00:00,
2013-07-01 18:05:00,75.4,71.9,29.82,ESE,108,0.0,0.0,89,0.00,,BKN150,0.88,VWS V14.01,2013-07-01 22:05:00,
2013-07-01 18:10:00,75.7,72.2,29.82,ESE,109,0.0,0.0,89,0.00,,BKN150,0.88,VWS V14.01,2013-07-01 22:10:00,
2013-07-01 18:15:00,75.7,71.6,29.82,ESE,108,0.0,1.0,87,0.00,,BKN150,0.88,VWS V14.01,2013-07-01 22:15:00,
2013-07-01 18:20:00,75.7,71.9,29.82,ESE,110,0.0,1.0,88,0.00,,BKN150,0.88,VWS V14.01,2013-07-01 22:20:00,
2013-07-01 18:25:00,76.1,71.6,29.82,ESE,108,1.0,2.0,86,0.00,,BKN150,0.88,VWS V14.01,2013-07-01 22:25:00,
2013-07-01 18:30:00,76.2,71.0,29.82,ESE,105,0.0,1.0,84,0.00,,BKN150,0.88,VWS V14.01,2013-07-01 22:30:00,
2013-07-01 18:35:00,76.6,71.1,29.83,East,98,0.0,1.0,83,0.00,,BKN150,0.88,VWS V14.01,2013-07-01 22:35:00,
2013-07-01 18:40:00,77.2,72.3,29.83,ENE,65,1.0,2.0,85,0.00,,BKN150,0.88,VWS V14.01,2013-07-01 22:40:00,
2013-07-01 18:45:00,77.7,71.8,29.83,NE,50,0.0,1.0,82,0.00,,BKN150,0.88,VWS V14.01,2013-07-01 22:45:00,
2013-07-01 18:50:00,77.9,72.3,29.83,ENE,58,0.0,1.0,83,0.00,,BKN150,0.88,VWS V14.01,2013-07-01 22:50:00,
2013-07-01 18:55:00,78.3,71.6,29.83,ESE,117,0.0,1.0,80,0.00,,BKN150,0.88,VWS V14.01,2013-07-01 22:55:00,
2013-07-01 19:00:00,78.8,72.1,29.83,WSW,257,1.0,1.0,80,0.00,,BKN150,0.88,VWS V14.01,2013-07-01 23:00:00,
2013-07-01 19:05:00,78.4,72.4,29.83,SW,225,0.0,1.0,82,0.00,,BKN150,0.88,VWS V14.01,2013-07-01 23:05:00,
2013-07-01 19:10:00,78.2,72.6,29.83,SW,225,0.0,1.0,83,0.00,,BKN150,0.88,VWS V14.01,2013-07-01 23:10:00,
2013-07-01 19:15:00,78.1,71.8,29.83,East,79,0.0,1.0,81,0.00,,BKN150,0.88,VWS V14.01,2013-07-01 23:15:00,
2013-07-01 19:20:00,77.9,71.6,29.83,East,79,0.0,0.0,81,0.00,,BKN150,0.88,VWS V14.01,2013-07-01 23:20:00,
2013-07-01 19:25:00,77.8,71.9,29.84,East,79,0.0,0.0,82,0.00,,BKN150,0.88,VWS V14.01,2013-07-01 23:25:00,
2013-07-01 19:30:00,77.7,71.8,29.84,East,79,0.0,1.0,82,0.00,,BKN150,0.88,VWS V14.01,2013-07-01 23:30:00,
2013-07-01 19:35:00,77.3,71.7,29.84,East,90,0.0,1.0,83,0.00,,BKN150,0.88,VWS V14.01,2013-07-01 23:35:00,
2013-07-01 19:40:00,77.1,71.5,29.84,East,90,0.0,0.0,83,0.00,,BKN150,0.88,VWS V14.01,2013-07-01 23:40:00,
2013-07-01 19:45:00,76.8,71.6,29.84,East,94,0.0,1.0,84,0.00,,BKN150,0.88,VWS V14.01,2013-07-01 23:45:00,
2013-07-01 19:50:00,76.6,71.8,29.84,East,94,0.0,1.0,85,0.00,,BKN150,0.88,VWS V14.01,2013-07-01 23:50:00,
2013-07-01 19:55:00,76.5,72.0,29.85,East,94,0.0,0.0,86,0.00,,BKN150,0.88,VWS V14.01,2013-07-01 23:55:00,
2013-07-01 20:00:00,76.3,72.2,29.85,East,94,0.0,0.0,87,0.00,,BKN150,0.88,VWS V14.01,2013-07-02 00:00:00,
2013-07-01 20:05:00,76.2,72.1,29.85,East,93,0.0,0.0,87,0.00,,BKN150,0.88,VWS V14.01,2013-07-02 00:05:00,
2013-07-01 20:10:00,75.8,72.0,29.85,SW,233,0.0,0.0,88,0.00,,BKN150,0.88,VWS V14.01,2013-07-02 00:10:00,
2013-07-01 20:15:00,75.5,71.7,29.85,SW,230,1.0,1.0,88,0.00,,BKN150,0.88,VWS V14.01,2013-07-02 00:15:00,
2013-07-01 20:20:00,75.2,71.7,29.85,SW,231,0.0,0.0,89,0.00,,BKN150,0.88,VWS V14.01,2013-07-02 00:20:00,
2013-07-01 20:25:00,75.1,71.6,29.85,SW,230,0.0,0.0,89,0.00,,BKN150,0.88,VWS V14.01,2013-07-02 00:25:00,
2013-07-01 20:30:00,74.9,71.4,29.85,WSW,253,0.0,0.0,89,0.00,,BKN150,0.88,VWS V14.01,2013-07-02 00:30:00,
2013-07-01 20:35:00,74.6,71.5,29.85,WSW,253,0.0,1.0,90,0.00,,BKN150,0.88,VWS V14.01,2013-07-02 00:35:00,
2013-07-01 20:40:00,74.5,71.7,29.86,WSW,252,0.0,0.0,91,0.00,,BKN150,0.88,VWS V14.01,2013-07-02 00:40:00,
2013-07-01 20:45:00,74.3,71.5,29.85,WSW,252,0.0,0.0,91,0.00,,BKN150,0.88,VWS V14.01,2013-07-02 00:45:00,
2013-07-01 20:50:00,74.2,71.4,29.86,WSW,253,0.0,0.0,91,0.00,,BKN150,0.88,VWS V14.01,2013-07-02 00:50:00,
2013-07-01 20:55:00,74.0,71.2,29.85,WSW,253,0.0,0.0,91,0.00,,BKN150,0.88,VWS V14.01,2013-07-02 00:55:00,
2013-07-01 21:00:00,74.0,71.5,29.85,WSW,253,0.0,0.0,92,0.00,,BKN150,0.88,VWS V14.01,2013-07-02 01:00:00,
2013-07-01 21:05:00,73.8,71.3,29.85,WSW,253,0.0,0.0,92,0.00,,BKN150,0.88,VWS V14.01,2013-07-02 01:05:00,
2013-07-01 21:10:00,73.4,70.6,29.86,WSW,253,0.0,0.0,91,0.00,,BKN150,0.88,VWS V14.01,2013-07-02 01:10:00,
2013-07-01 21:15:00,73.0,70.2,29.86,WSW,253,0.0,0.0,91,0.00,,BKN150,0.88,VWS V14.01,2013-07-02 01:15:00,
2013-07-01 21:20:00,72.9,70.1,29.86,WSW,253,0.0,0.0,91,0.00,,BKN150,0.88,VWS V14.01,2013-07-02 01:20:00,
2013-07-01 21:25:00,72.8,70.3,29.86,ENE,67,1.0,1.0,92,0.00,,BKN150,0.88,VWS V14.01,2013-07-02 01:25:00,
2013-07-01 21:30:00,72.9,70.4,29.86,ENE,65,0.0,1.0,92,0.00,,BKN150,0.88,VWS V14.01,2013-07-02 01:30:00,
2013-07-01 21:35:00,72.9,70.4,29.87,ENE,67,0.0,0.0,92,0.00,,BKN150,0.88,VWS V14.01,2013-07-02 01:35:00,
2013-07-01 21:40:00,72.8,70.3,29.87,ENE,70,0.0,1.0,92,0.00,,BKN150,0.88,VWS V14.01,2013-07-02 01:40:00,
2013-07-01 21:45:00,72.8,70.7,29.87,East,91,0.0,1.0,93,0.00,,BKN150,0.88,VWS V14.01,2013-07-02 01:45:00,
2013-07-01 21:50:00,72.7,70.6,29.87,East,91,0.0,1.0,93,0.00,,BKN150,0.88,VWS V14.01,2013-07-02 01:50:00,
2013-07-01 21:55:00,72.7,70.9,29.87,East,91,0.0,1.0,94,0.00,,BKN150,0.88,VWS V14.01,2013-07-02 01:55:00,
2013-07-01 22:00:00,72.6,70.8,29.88,East,92,0.0,0.0,94,0.00,,BKN150,0.88,VWS V14.01,2013-07-02 02:00:00,
2013-07-01 22:05:00,72.5,70.7,29.88,East,91,0.0,0.0,94,0.00,,BKN120,0.88,VWS V14.01,2013-07-02 02:05:00,
2013-07-01 22:10:00,72.5,71.0,29.88,ENE,74,0.0,2.0,95,0.00,,BKN120,0.88,VWS V14.01,2013-07-02 02:10:00,
2013-07-01 22:15:00,72.5,71.0,29.88,ENE,74,0.0,0.0,95,0.00,,BKN120,0.88,VWS V14.01,2013-07-02 02:15:00,
2013-07-01 22:20:00,72.5,71.0,29.88,ENE,74,1.0,1.0,95,0.00,,BKN120,0.88,VWS V14.01,2013-07-02 02:20:00,
2013-07-01 22:25:00,72.4,70.9,29.88,ENE,73,0.0,1.0,95,0.00,,BKN120,0.88,VWS V14.01,2013-07-02 02:25:00,
2013-07-01 22:30:00,72.4,70.9,29.88,ENE,75,1.0,1.0,95,0.00,,BKN120,0.88,VWS V14.01,2013-07-02 02:30:00,
2013-07-01 22:35:00,72.3,71.1,29.88,ENE,75,0.0,0.0,96,0.00,,BKN120,0.88,VWS V14.01,2013-07-02 02:35:00,
2013-07-01 22:40:00,72.2,71.0,29.88,ENE,77,0.0,0.0,96,0.00,,BKN120,0.88,VWS V14.01,2013-07-02 02:40:00,
2013-07-01 22:45:00,72.2,71.0,29.88,East,79,0.0,1.0,96,0.00,,BKN120,0.88,VWS V14.01,2013-07-02 02:45:00,
2013-07-01 22:50:00,72.1,70.9,29.88,East,79,0.0,1.0,96,0.00,,BKN120,0.88,VWS V14.01,2013-07-02 02:50:00,
2013-07-01 22:55:00,72.1,70.9,29.89,ENE,77,0.0,1.0,96,0.00,,BKN120,0.88,VWS V14.01,2013-07-02 02:55:00,
2013-07-01 23:00:00,72.0,70.8,29.88,East,79,1.0,1.0,96,0.00,,BKN120,0.88,VWS V14.01,2013-07-02 03:00:00,
2013-07-01 23:05:00,71.9,70.7,29.88,East,80,0.0,1.0,96,0.00,,BKN100,0.88,VWS V14.01,2013-07-02 03:05:00,
2013-07-01 23:10:00,71.8,70.6,29.89,East,90,0.0,2.0,96,0.00,,BKN100,0.88,VWS V14.01,2013-07-02 03:10:00,
2013-07-01 23:15:00,71.8,70.6,29.89,East,82,0.0,1.0,96,0.00,,BKN100,0.88,VWS V14.01,2013-07-02 03:15:00,
2013-07-01 23:20:00,71.8,70.6,29.88,East,82,1.0,1.0,96,0.00,,BKN100,0.88,VWS V14.01,2013-07-02 03:20:00,
2013-07-01 23:25:00,71.8,70.6,29.88,East,99,0.0,1.0,96,0.00,,BKN100,0.88,VWS V14.01,2013-07-02 03:25:00,
2013-07-01 23:30:00,71.8,70.6,29.88,East,99,0.0,0.0,96,0.00,,BKN100,0.88,VWS V14.01,2013-07-02 03:30:00,
2013-07-01 23:35:00,71.7,70.5,29.88,East,99,0.0,1.0,96,0.00,,BKN100,0.88,VWS V14.01,2013-07-02 03:35:00,
2013-07-01 23:40:00,71.7,70.5,29.88,East,91,0.0,1.0,96,0.00,,BKN100,0.88,VWS V14.01,2013-07-02 03:40:00,
2013-07-01 23:45:00,71.7,70.5,29.88,East,91,0.0,0.0,96,0.00,,BKN100,0.88,VWS V14.01,2013-07-02 03:45:00,
2013-07-01 23:50:00,71.6,70.4,29.88,East,92,0.0,0.0,96,0.00,,BKN100,0.88,VWS V14.01,2013-07-02 03:50:00,
2013-07-01 23:55:00,71.6,70.4,29.88,East,91,0.0,0.0,96,0.00,,BKN100,0.88,VWS V14.01,2013-07-02 03:55:00,